Time,TemperatureF,DewpointF,PressureIn,WindDirection,WindDirectionDegrees,WindSpeedMPH,WindSpeedGustMPH,Humidity,HourlyPrecipIn,Conditions,Clouds,dailyrainin,SolarRadiationWatts/m^2,SoftwareType,DateUTC
2013-05-15 00:01:00,41.0,38.0,30.13,SSE,155,0.0,0.0,88,0.00,,,0.00,0,weatherlink.com 1.10,2013-05-15 04:01:00,
2013-05-15 00:16:00,40.5,38.0,30.13,SSE,155,0.0,0.0,89,0.00,,,0.00,0,weatherlink.com 1.10,2013-05-15 04:16:00,
2013-05-15 00:31:00,40.1,38.0,30.13,SSE,155,0.0,0.0,90,0.00,,,0.00,0,weatherlink.com 1.10,2013-05-15 04:31:00,
2013-05-15 00:46:00,40.0,38.0,30.13,SSE,155,0.0,0.0,92,0.00,,,0.00,0,weatherlink.com 1.10,2013-05-15 04:46:00,
2013-05-15 01:01:00,40.3,39.0,30.13,SSE,155,0.0,0.0,93,0.00,,,0.00,0,weatherlink.com 1.10,2013-05-15 05:01:00,
2013-05-15 01:16:00,40.2,38.0,30.12,SSE,155,0.0,0.0,93,0.00,,,0.00,0,weatherlink.com 1.10,2013-05-15 05:16:00,
2013-05-15 01:31:00,40.3,39.0,30.12,SSE,155,0.0,0.0,94,0.00,,,0.00,0,weatherlink.com 1.10,2013-05-15 05:31:00,
2013-05-15 01:46:00,40.2,38.0,30.12,SSE,155,0.0,0.0,93,0.00,,,0.00,0,weatherlink.com 1.10,2013-05-15 05:46:00,
2013-05-15 02:01:00,39.7,38.0,30.12,SSE,155,0.0,0.0,93,0.00,,,0.00,0,weatherlink.com 1.10,2013-05-15 06:01:00,
2013-05-15 02:31:00,39.0,37.0,30.12,SSE,155,0.0,0.0,93,0.00,,,0.00,0,weatherlink.com 1.10,2013-05-15 06:31:00,
2013-05-15 02:46:00,38.5,37.0,30.12,SSE,155,0.0,0.0,93,0.00,,,0.00,0,weatherlink.com 1.10,2013-05-15 06:46:00,
2013-05-15 03:01:00,38.5,37.0,30.11,SSE,155,0.0,0.0,95,0.00,,,0.00,0,weatherlink.com 1.10,2013-05-15 07:01:00,
2013-05-15 03:16:00,39.1,38.0,30.11,SSE,155,0.0,0.0,96,0.00,,,0.00,0,weatherlink.com 1.10,2013-05-15 07:16:00,
2013-05-15 03:31:00,39.3,38.0,30.11,SSE,155,0.0,0.0,96,0.00,,,0.00,0,weatherlink.com 1.10,2013-05-15 07:31:00,
2013-05-15 03:46:00,39.5,39.0,30.11,SSE,155,0.0,0.0,96,0.00,,,0.00,0,weatherlink.com 1.10,2013-05-15 07:46:00,
2013-05-15 04:01:00,39.4,38.0,30.11,SSE,155,0.0,0.0,95,0.00,,,0.00,0,weatherlink.com 1.10,2013-05-15 08:01:00,
2013-05-15 04:16:00,39.2,38.0,30.10,SSE,155,0.0,0.0,95,0.00,,,0.00,0,weatherlink.com 1.10,2013-05-15 08:16:00,
2013-05-15 04:31:00,38.6,37.0,30.10,SSE,155,0.0,0.0,95,0.00,,,0.00,0,weatherlink.com 1.10,2013-05-15 08:31:00,
2013-05-15 04:46:00,38.6,38.0,30.10,SSE,155,0.0,0.0,96,0.00,,,0.00,0,weatherlink.com 1.10,2013-05-15 08:46:00,
2013-05-15 05:01:00,38.6,38.0,30.09,SSE,155,0.0,0.0,96,0.00,,,0.00,0,weatherlink.com 1.10,2013-05-15 09:01:00,
2013-05-15 05:16:00,38.2,37.0,30.10,SSE,155,0.0,0.0,95,0.00,,,0.00,0,weatherlink.com 1.10,2013-05-15 09:16:00,
2013-05-15 05:31:00,37.7,36.0,30.10,SSE,155,0.0,0.0,95,0.00,,,0.00,0,weatherlink.com 1.10,2013-05-15 09:31:00,
2013-05-15 05:46:00,37.5,36.0,30.10,SSE,155,0.0,0.0,95,0.00,,,0.00,5,weatherlink.com 1.10,2013-05-15 09:46:00,
2013-05-15 06:01:00,37.8,37.0,30.10,SSE,155,0.0,0.0,96,0.00,,,0.00,9,weatherlink.com 1.10,2013-05-15 10:01:00,
2013-05-15 06:16:00,37.7,37.0,30.10,SSE,155,0.0,0.0,96,0.00,,,0.00,12,weatherlink.com 1.10,2013-05-15 10:16:00,
2013-05-15 06:31:00,38.1,37.0,30.10,SSE,155,0.0,1.0,96,0.00,,,0.00,16,weatherlink.com 1.10,2013-05-15 10:31:00,
2013-05-15 06:46:00,39.0,38.0,30.11,SSE,155,0.0,0.0,97,0.00,,,0.00,19,weatherlink.com 1.10,2013-05-15 10:46:00,
2013-05-15 07:01:00,40.2,39.0,30.11,SSE,155,0.0,0.0,97,0.00,,,0.00,25,weatherlink.com 1.10,2013-05-15 11:01:00,
2013-05-15 07:16:00,41.9,41.0,30.11,SSE,155,0.0,0.0,97,0.00,,,0.00,28,weatherlink.com 1.10,2013-05-15 11:16:00,
2013-05-15 07:32:00,43.3,43.0,30.10,SSE,155,0.0,1.0,98,0.00,,,0.00,33,weatherlink.com 1.10,2013-05-15 11:32:00,
2013-05-15 07:47:00,45.4,45.0,30.11,WSW,253,1.0,3.0,98,0.00,,,0.00,39,weatherlink.com 1.10,2013-05-15 11:47:00,
2013-05-15 08:02:00,47.7,47.0,30.10,West,266,0.0,2.0,98,0.00,,,0.00,62,weatherlink.com 1.10,2013-05-15 12:02:00,
2013-05-15 08:17:00,49.4,49.0,30.10,WSW,242,3.0,3.0,98,0.00,,,0.00,127,weatherlink.com 1.10,2013-05-15 12:17:00,
2013-05-15 08:32:00,51.1,48.0,30.09,SSW,211,1.0,6.0,88,0.00,,,0.00,141,weatherlink.com 1.10,2013-05-15 12:32:00,
2013-05-15 08:47:00,52.8,48.0,30.09,WSW,254,1.0,4.0,84,0.00,,,0.00,134,weatherlink.com 1.10,2013-05-15 12:47:00,
2013-05-15 09:17:00,55.6,49.0,30.08,WSW,257,3.0,4.0,77,0.00,,,0.00,207,weatherlink.com 1.10,2013-05-15 13:17:00,
2013-05-15 09:32:00,57.2,47.0,30.07,NW,306,0.0,6.0,69,0.00,,,0.00,274,weatherlink.com 1.10,2013-05-15 13:32:00,
2013-05-15 09:47:00,58.5,44.0,30.07,SSW,201,1.0,7.0,60,0.00,,,0.00,204,weatherlink.com 1.10,2013-05-15 13:47:00,
2013-05-15 10:02:00,58.9,44.0,30.07,WSW,237,0.0,9.0,58,0.00,,,0.00,318,weatherlink.com 1.10,2013-05-15 14:02:00,
2013-05-15 10:17:00,60.5,46.0,30.06,South,180,2.0,7.0,60,0.00,,,0.00,747,weatherlink.com 1.10,2013-05-15 14:17:00,
2013-05-15 10:32:00,62.5,47.0,30.06,West,281,1.0,8.0,57,0.00,,,0.00,613,weatherlink.com 1.10,2013-05-15 14:32:00,
2013-05-15 11:02:00,64.7,45.0,30.05,SE,134,0.0,12.0,49,0.00,,,0.00,408,weatherlink.com 1.10,2013-05-15 15:02:00,
2013-05-15 11:17:00,64.4,44.0,30.05,WSW,246,4.0,11.0,47,0.00,,,0.00,636,weatherlink.com 1.10,2013-05-15 15:17:00,
2013-05-15 11:32:00,63.8,43.0,30.05,South,182,3.0,11.0,47,0.00,,,0.00,299,weatherlink.com 1.10,2013-05-15 15:32:00,
2013-05-15 11:47:00,62.2,42.0,30.04,WSW,253,0.0,11.0,47,0.00,,,0.00,264,weatherlink.com 1.10,2013-05-15 15:47:00,
2013-05-15 12:02:00,61.4,41.0,30.03,West,278,0.0,8.0,48,0.00,,,0.00,188,weatherlink.com 1.10,2013-05-15 16:02:00,
2013-05-15 12:17:00,61.3,40.0,30.03,SSE,148,2.0,11.0,46,0.00,,,0.00,218,weatherlink.com 1.10,2013-05-15 16:17:00,
2013-05-15 12:47:00,61.4,39.0,30.04,ENE,59,2.0,9.0,44,0.00,,,0.00,197,weatherlink.com 1.10,2013-05-15 16:47:00,
2013-05-15 13:17:00,61.6,44.0,30.01,West,278,6.0,9.0,52,0.00,,,0.00,192,weatherlink.com 1.10,2013-05-15 17:17:00,
2013-05-15 13:32:00,61.3,48.0,30.00,WSW,251,3.0,6.0,61,0.00,,,0.00,179,weatherlink.com 1.10,2013-05-15 17:32:00,
2013-05-15 13:47:00,60.8,49.0,29.97,South,178,3.0,9.0,66,0.00,,,0.00,213,weatherlink.com 1.10,2013-05-15 17:47:00,
2013-05-15 14:03:00,59.3,49.0,29.93,ENE,59,2.0,12.0,69,0.00,,,0.00,229,weatherlink.com 1.10,2013-05-15 18:03:00,
2013-05-15 14:18:00,58.9,50.0,29.97,South,173,2.0,7.0,72,0.00,,,0.00,134,weatherlink.com 1.10,2013-05-15 18:18:00,
2013-05-15 14:48:00,59.9,52.0,29.92,North,355,3.0,10.0,76,0.00,,,0.00,826,weatherlink.com 1.10,2013-05-15 18:48:00,
2013-05-15 15:03:00,61.7,51.0,29.93,WNW,296,3.0,8.0,69,0.00,,,0.00,120,weatherlink.com 1.10,2013-05-15 19:03:00,
2013-05-15 15:33:00,57.9,51.0,29.93,West,259,1.0,10.0,78,0.00,,,0.00,79,weatherlink.com 1.10,2013-05-15 19:33:00,
2013-05-15 15:48:00,57.4,52.0,29.92,ESE,115,0.0,5.0,83,0.00,,,0.00,72,weatherlink.com 1.10,2013-05-15 19:48:00,
2013-05-15 16:03:00,57.0,53.0,29.89,NE,56,7.0,7.0,86,0.00,,,0.00,91,weatherlink.com 1.10,2013-05-15 20:03:00,
2013-05-15 16:33:00,56.7,53.0,29.87,ESE,109,1.0,8.0,86,0.00,,,0.00,33,weatherlink.com 1.10,2013-05-15 20:33:00,
2013-05-15 16:48:00,56.3,53.0,29.86,North,350,3.0,6.0,87,0.00,,,0.00,46,weatherlink.com 1.10,2013-05-15 20:48:00,
2013-05-15 17:03:00,56.2,52.0,29.84,SSE,157,3.0,10.0,87,0.00,,,0.00,56,weatherlink.com 1.10,2013-05-15 21:03:00,
2013-05-15 17:18:00,56.5,52.0,29.82,NNE,28,1.0,10.0,86,0.00,,,0.00,97,weatherlink.com 1.10,2013-05-15 21:18:00,
2013-05-15 17:33:00,56.8,53.0,29.81,ENE,65,4.0,10.0,86,0.00,,,0.00,91,weatherlink.com 1.10,2013-05-15 21:33:00,
2013-05-15 18:03:00,57.9,53.0,29.79,North,355,4.0,7.0,84,0.00,,,0.00,104,weatherlink.com 1.10,2013-05-15 22:03:00,
2013-05-15 18:18:00,57.9,53.0,29.80,ESE,115,0.0,11.0,84,0.00,,,0.00,53,weatherlink.com 1.10,2013-05-15 22:18:00,
2013-05-15 18:33:00,57.5,53.0,29.81,WNW,290,1.0,6.0,85,0.00,,,0.00,33,weatherlink.com 1.10,2013-05-15 22:33:00,
2013-05-15 18:48:00,57.2,53.0,29.80,NNW,342,0.0,4.0,87,0.00,,,0.00,69,weatherlink.com 1.10,2013-05-15 22:48:00,
2013-05-15 19:33:00,56.1,53.0,29.78,East,97,0.0,3.0,89,0.00,,,0.00,5,weatherlink.com 1.10,2013-05-15 23:33:00,
2013-05-15 19:49:00,55.5,53.0,29.78,East,82,0.0,4.0,90,0.01,,,0.01,5,weatherlink.com 1.10,2013-05-15 23:49:00,
2013-05-15 20:03:00,54.8,52.0,29.77,East,80,0.0,2.0,91,0.01,,,0.01,0,weatherlink.com 1.10,2013-05-16 00:03:00,
2013-05-15 20:18:00,54.1,52.0,29.77,East,80,1.0,1.0,92,0.01,,,0.01,0,weatherlink.com 1.10,2013-05-16 00:18:00,
2013-05-15 20:33:00,53.6,52.0,29.76,ENE,69,0.0,3.0,93,0.01,,,0.01,0,weatherlink.com 1.10,2013-05-16 00:33:00,
2013-05-15 20:48:00,53.4,52.0,29.76,ENE,69,0.0,2.0,94,0.00,,,0.01,0,weatherlink.com 1.10,2013-05-16 00:48:00,
2013-05-15 21:03:00,53.1,52.0,29.77,ENE,69,0.0,1.0,94,0.00,,,0.01,0,weatherlink.com 1.10,2013-05-16 01:03:00,
2013-05-15 21:18:00,52.9,51.0,29.77,ESE,117,1.0,2.0,94,0.00,,,0.01,0,weatherlink.com 1.10,2013-05-16 01:18:00,
2013-05-15 21:48:00,53.1,52.0,29.77,SE,145,0.0,4.0,95,0.00,,,0.01,0,weatherlink.com 1.10,2013-05-16 01:48:00,
2013-05-15 22:03:00,53.0,52.0,29.76,WNW,285,0.0,2.0,95,0.00,,,0.01,0,weatherlink.com 1.10,2013-05-16 02:03:00,
2013-05-15 22:33:00,52.4,51.0,29.76,WSW,238,0.0,1.0,95,0.00,,,0.01,0,weatherlink.com 1.10,2013-05-16 02:33:00,
2013-05-15 22:48:00,52.2,51.0,29.76,WSW,238,0.0,1.0,96,0.00,,,0.01,0,weatherlink.com 1.10,2013-05-16 02:48:00,
2013-05-15 23:03:00,51.8,51.0,29.76,WSW,238,0.0,0.0,95,0.00,,,0.01,0,weatherlink.com 1.10,2013-05-16 03:03:00,
2013-05-15 23:19:00,51.5,50.0,29.75,WSW,238,0.0,1.0,96,0.00,,,0.01,0,weatherlink.com 1.10,2013-05-16 03:19:00,
2013-05-15 23:34:00,51.2,50.0,29.75,WSW,238,0.0,0.0,95,0.00,,,0.01,0,weatherlink.com 1.10,2013-05-16 03:34:00,
2013-05-15 23:49:00,50.7,49.0,29.75,WSW,238,0.0,0.0,95,0.00,,,0.01,0,weatherlink.com 1.10,2013-05-16 03:49:00,